Tacoma, WA
on Thursday, January 31, 2013

Thursday
Previous Day Next Day
Daily Summary
 ActualAverage (KSEA)Record (KSEA)
Temperature
Mean Temperature °F 43°F  
Max Temperature 50°F 49°F 61°F (1960)
Min Temperature 40°F 37°F 0°F (1950)
Degree Days
Heating Degree Days 20 22  
Month to date heating degree days 710  
Since 1 July heating degree days 2649  
Cooling Degree Days 0 0  
Month to date cooling degree days 0  
Year to date cooling degree days 0  
Moisture
Dew Point 46°F   
Average Humidity 98    
Maximum Humidity 100    
Minimum Humidity 87    
Precipitation
Precipitation 0.05 in 0.16 in 1.93 in (1987)
Month to date precipitation 5.57  
Year to date precipitation 5.57  
Snow
Snow 0.00 in in 2.00 in (1969)
Month to date snowfall  
Since 1 July snowfall  
Snow Depth in   
Wind
Wind Speed 5 mph   
Max Wind Speed 10 mph   
Max Gust Speed mph   
Visibility 10 miles   
Events Rain   

Key: T is trace of precipitation, MM is missing value
Source: NWS Daily Summary
Time(PST)TemperatureDew PointHumidity Pressure Visibility Wind DirectionWind SpeedGust SpeedPrecipitationEvents Conditions
12:02 AM 46.4°F 46.4°F 100% 30.39 in 6.0 miles SSW 5.8 mph - N/A   Overcast
12:05 AM 46.4°F 46.4°F 100% 30.39 in 5.0 miles SSW 3.5 mph - N/A   Light Drizzle
12:10 AM 46.4°F 46.4°F 100% 30.39 in 4.0 miles SSW 4.6 mph - N/A   Light Drizzle
12:30 AM 46.4°F 46.4°F 100% 30.39 in 5.0 miles SSW 5.8 mph - N/A   Light Drizzle
12:36 AM 46.4°F 46.4°F 100% 30.39 in 9.0 miles South 4.6 mph - N/A   Overcast
12:46 AM 46.4°F 46.4°F 100% 30.39 in 10.0 miles South 4.6 mph - N/A   Overcast
12:51 AM 46.4°F 46.4°F 100% 30.39 in 10.0 miles South 5.8 mph - N/A   Overcast
12:58 AM 46.4°F 46.2°F 99% 30.41 in 10.0 miles South 3.5 mph - 0.01 in   Overcast
1:03 AM 46.4°F 46.4°F 100% 30.39 in 10.0 miles South 4.6 mph - N/A   Overcast
1:58 AM 46.9°F 46.8°F 99% 30.42 in 10.0 miles SSW 4.6 mph - N/A   Overcast
2:58 AM 46.0°F 45.9°F 99% 30.43 in 10.0 miles SSE 4.6 mph - N/A   Overcast
3:13 AM 46.4°F 46.4°F 100% 30.41 in 10.0 miles SE 4.6 mph - N/A   Overcast
3:43 AM 46.4°F 46.4°F 100% 30.41 in 10.0 miles SSE 3.5 mph - N/A   Overcast
3:58 AM 46.0°F 45.7°F 99% 30.43 in 10.0 miles South 4.6 mph - N/A   Overcast
4:36 AM 44.6°F 44.6°F 100% 30.40 in 10.0 miles SE 3.5 mph - N/A   Overcast
4:58 AM 44.8°F 44.4°F 99% 30.41 in 10.0 miles SE 4.6 mph - N/A   Mostly Cloudy
5:03 AM 44.6°F 44.6°F 100% 30.39 in 10.0 miles SE 4.6 mph - N/A   Scattered Clouds
5:58 AM 40.6°F 40.5°F 99% 30.41 in 9.0 miles South 6.9 mph - N/A   Scattered Clouds
6:58 AM 41.5°F 41.2°F 99% 30.41 in 10.0 miles South 4.6 mph - N/A   Mostly Cloudy
7:58 AM 43.2°F 42.8°F 99% 30.40 in 10.0 miles SSE 2.3 mph - N/A   Overcast
8:26 AM 44.6°F 42.8°F 93% 30.38 in 10.0 miles SSW 4.6 mph - N/A Rain Light Rain
8:49 AM 44.6°F 44.6°F 100% 30.38 in 10.0 miles SSW 2.3 mph - N/A   Overcast
8:58 AM 44.8°F 44.6°F 99% 30.40 in 10.0 miles South 2.3 mph - 0.00 in   Overcast
9:57 AM 46.4°F 44.6°F 93% 30.38 in 10.0 miles SSW 4.6 mph - N/A Rain Light Rain
9:58 AM 46.9°F 45.1°F 93% 30.40 in 10.0 miles SSW 4.6 mph - N/A Rain Light Rain
10:14 AM 48.2°F 46.4°F 93% 30.38 in 10.0 miles SSW 6.9 mph - N/A   Overcast
10:17 AM 46.4°F 46.4°F 100% 30.38 in 10.0 miles SSW 5.8 mph - N/A Rain Light Rain
10:58 AM 46.8°F 46.4°F 99% 30.40 in 10.0 miles South 5.8 mph - 0.03 in Rain Light Rain
11:35 AM 46.4°F 46.4°F 100% 30.37 in 10.0 miles South 4.6 mph - N/A   Overcast
11:58 AM 46.9°F 46.8°F 99% 30.39 in 10.0 miles SW 4.6 mph - 0.01 in   Overcast
12:38 PM 48.2°F 48.2°F 100% 30.36 in 10.0 miles SW 3.5 mph - N/A   Overcast
12:43 PM 48.2°F 48.2°F 100% 30.36 in 10.0 miles SW 3.5 mph - N/A   Overcast
12:48 PM 48.2°F 48.2°F 100% 30.36 in 10.0 miles SW 3.5 mph - N/A   Overcast
12:58 PM 47.8°F 47.7°F 99% 30.37 in 10.0 miles SSW 4.6 mph - N/A   Overcast
1:13 PM 48.2°F 48.2°F 100% 30.35 in 10.0 miles South 6.9 mph - N/A   Overcast
1:38 PM 48.2°F 48.2°F 100% 30.34 in 10.0 miles South 9.2 mph - N/A   Overcast
1:58 PM 48.9°F 46.4°F 91% 30.36 in 10.0 miles South 10.4 mph - N/A   Overcast
2:33 PM 48.2°F 46.4°F 93% 30.32 in 10.0 miles SSW 10.4 mph - N/A   Overcast
2:58 PM 49.1°F 46.8°F 92% 30.34 in 10.0 miles South 8.1 mph - N/A   Overcast
3:03 PM 50.0°F 46.4°F 87% 30.32 in 10.0 miles South 9.2 mph - N/A   Overcast
3:08 PM 50.0°F 46.4°F 87% 30.31 in 10.0 miles South 10.4 mph - N/A   Mostly Cloudy
3:23 PM 50.0°F 46.4°F 87% 30.32 in 10.0 miles SSW 10.4 mph - N/A   Mostly Cloudy
3:58 PM 49.1°F 46.0°F 89% 30.34 in 10.0 miles SSW 9.2 mph - N/A   Overcast
4:58 PM 48.6°F 46.0°F 91% 30.34 in 10.0 miles SSW 9.2 mph - N/A   Overcast
5:58 PM 48.0°F 45.3°F 90% 30.34 in 10.0 miles SSW 10.4 mph - N/A   Overcast
6:58 PM 47.3°F 45.5°F 93% 30.33 in 10.0 miles SSW 10.4 mph - N/A   Overcast
7:33 PM 44.6°F 44.6°F 100% 30.31 in 10.0 miles South 8.1 mph - N/A   Scattered Clouds
7:43 PM 44.6°F 44.6°F 100% 30.31 in 10.0 miles South 6.9 mph - N/A   Mostly Cloudy
7:53 PM 44.6°F 44.6°F 100% 30.31 in 10.0 miles South 4.6 mph - N/A   Mostly Cloudy
7:58 PM 45.0°F 44.8°F 99% 30.33 in 10.0 miles South 3.5 mph - N/A   Mostly Cloudy
8:08 PM 44.6°F 44.6°F 100% 30.31 in 10.0 miles SSW 8.1 mph - N/A   Overcast
8:18 PM 44.6°F 44.6°F 100% 30.31 in 10.0 miles South 4.6 mph - N/A   Overcast
8:33 PM 44.6°F 44.6°F 100% 30.32 in 10.0 miles SSW 2.3 mph - N/A   Overcast
8:38 PM 44.6°F 44.6°F 100% 30.32 in 10.0 miles SSW 2.3 mph - N/A   Overcast
8:58 PM 44.6°F 44.4°F 99% 30.34 in 10.0 miles SSE 2.3 mph - N/A   Mostly Cloudy
9:08 PM 44.6°F 44.6°F 100% 30.32 in 10.0 miles SE 4.6 mph - N/A   Overcast
9:58 PM 46.0°F 45.9°F 99% 30.34 in 10.0 miles SSW 2.3 mph - N/A   Overcast
10:58 PM 46.4°F 46.2°F 99% 30.35 in 10.0 miles SSW 4.6 mph - N/A   Overcast
11:07 PM 46.4°F 46.4°F 100% 30.33 in 10.0 miles SW 4.6 mph - N/A   Overcast
11:08 PM 46.4°F 46.4°F 100% 30.33 in 9.0 miles SW 4.6 mph - N/A   Light Drizzle
11:20 PM 46.4°F 46.4°F 100% 30.33 in 9.0 miles SSW 5.8 mph - N/A   Overcast
11:54 PM 46.4°F 46.4°F 100% 30.34 in 8.0 miles SSW 6.9 mph - N/A   Light Drizzle
11:58 PM 46.0°F 45.9°F 99% 30.36 in 8.0 miles SSW 5.8 mph - 0.00 in   Light Drizzle
Moon Phase
Jan. 31 Feb. 03 Feb. 10 Feb. 17 Feb. 25
Sunrise:07:35 AM (PST) Moon Rise:10:44 PM (PST)1/31
Sunset:05:11 PM (PST) Moon Set:09:15 AM (PST)1/31

Copyright © 2014 The Weather Underground, Inc.